Time,TemperatureF,DewpointF,PressureIn,WindDirection,WindDirectionDegrees,WindSpeedMPH,WindSpeedGustMPH,Humidity,HourlyPrecipIn,Conditions,Clouds,dailyrainin,SoftwareType,DateUTC
2013-11-30 00:00:00,35.3,18.0,24.28,North,0,0.0,-999.0,49,0.00,,,0.00,,2013-11-30 08:00:00,
2013-11-30 01:00:00,35.1,17.8,24.27,North,0,0.0,-999.0,49,0.00,,,0.00,,2013-11-30 09:00:00,
2013-11-30 02:00:00,35.1,17.4,24.27,North,0,0.0,-999.0,48,0.00,,,0.00,,2013-11-30 10:00:00,
2013-11-30 03:00:00,34.7,17.5,24.27,North,0,0.0,-999.0,49,0.00,,,0.00,,2013-11-30 11:00:00,
2013-11-30 04:00:00,34.6,18.7,24.26,North,0,0.0,-999.0,52,0.00,,,0.00,,2013-11-30 12:00:00,
2013-11-30 05:00:00,34.9,19.9,24.26,North,0,0.0,-999.0,54,0.00,,,0.00,,2013-11-30 13:00:00,
2013-11-30 06:00:00,35.3,20.3,24.27,North,0,0.0,-999.0,54,0.00,,,0.00,,2013-11-30 14:00:00,
2013-11-30 07:05:00,35.5,20.0,24.27,North,0,0.0,-999.0,53,0.00,,,0.00,,2013-11-30 15:05:00,
2013-11-30 08:05:00,37.3,22.5,0.00,North,0,0.0,-999.0,55,0.00,,,0.00,,2013-11-30 16:05:00,
2013-11-30 09:05:00,40.9,26.3,0.00,North,0,0.0,-999.0,56,0.00,,,0.00,,2013-11-30 17:05:00,
2013-11-30 10:05:00,45.9,28.8,0.00,North,0,0.0,-999.0,51,0.00,,,0.00,,2013-11-30 18:05:00,
2013-11-30 11:05:00,49.7,26.9,0.00,North,0,0.0,-999.0,41,0.00,,,0.00,,2013-11-30 19:05:00,
2013-11-30 12:00:00,51.3,28.4,0.00,North,0,0.0,-999.0,41,0.00,,,0.00,,2013-11-30 20:00:00,
2013-11-30 13:05:00,51.1,26.9,0.00,North,0,0.0,-999.0,39,0.00,,,0.00,,2013-11-30 21:05:00,
2013-11-30 14:05:00,50.6,27.1,0.00,North,0,0.0,-999.0,40,0.00,,,0.00,,2013-11-30 22:05:00,
2013-11-30 15:05:00,49.5,31.2,0.00,North,0,0.0,-999.0,49,0.00,,,0.00,,2013-11-30 23:05:00,
2013-11-30 16:05:00,46.4,31.5,0.00,North,0,0.0,-999.0,56,0.00,,,0.00,,2013-12-01 00:05:00,
2013-11-30 17:05:00,44.3,29.5,0.00,North,0,0.0,-999.0,56,0.00,,,0.00,,2013-12-01 01:05:00,
2013-11-30 18:00:00,41.2,27.1,24.27,North,0,0.0,-999.0,57,0.00,,,0.00,,2013-12-01 02:00:00,
2013-11-30 19:00:00,39.8,26.6,24.28,North,0,0.0,-999.0,59,0.00,,,0.00,,2013-12-01 03:00:00,
2013-11-30 20:00:00,38.5,24.9,24.29,North,0,0.0,-999.0,58,0.00,,,0.00,,2013-12-01 04:00:00,
2013-11-30 21:00:00,38.0,24.0,24.30,North,0,0.0,-999.0,57,0.00,,,0.00,,2013-12-01 05:00:00,
2013-11-30 22:00:00,39.2,25.2,24.30,North,0,0.0,-999.0,57,0.00,,,0.00,,2013-12-01 06:00:00,
2013-11-30 23:00:00,37.3,23.4,24.31,North,0,0.0,-999.0,57,0.00,,,0.00,,2013-12-01 07:00:00,